Tracking 29967 objects as of 5-Dec-2024
HD Live streaming from Space Station
objects crossing your sky now

STARLINK-31908

Track STARLINK-31908 now!
10-day predictions
STARLINK-31908 is classified as:


NORAD ID: 59901
Int'l Code: 2024-100S
Perigee: 450.1 km
Apogee: 452.3 km
Inclination: 43.0 °
Period: 93.5 minutes
Semi major axis: 6822 km
RCS: Unknown
Launch date: May 28, 2024
Source: United States (US)
Launch site: AIR FORCE EASTERN TEST RANGE (AFETR)
Your satellite tracking list
Your tracking list is empty




NASA's NSSDC Master Catalog

Two Line Element Set (TLE):
1 59901U 24100S   24339.08593900 -.00002667  00000-0 -56621-4 0  9993
2 59901  43.0030 220.4835 0001567 264.9613  95.1064 15.40687350 30546
Source of the keplerian elements: AFSPC